HI3R-13 Weather Reports


time (UTC)temp
C
wind
direction
speed
KPH
gust
KPH
rain 1hr
cm
rain 24hr
cm
rain mn
cm
humidity
%
barometer
mb
20260507232017 27 0.0 8.0 0.00 0.00 0.00 69 986.0
20260507231017 27 0.0 8.0 0.00 0.00 0.00 68 986.0
20260507230017 28 248 1.6 12.9 0.00 0.00 0.00 66 986.0
20260507225037 28 293 1.6 11.3 0.00 0.00 0.00 65 985.7
20260507224017 28 270 1.6 16.1 0.00 0.00 0.00 64 985.5
20260507223017 29 0.0 4.8 0.00 0.00 0.00 63 985.5
20260507222017 30 225 3.2 19.3 0.00 0.00 0.00 62 985.4
20260507221017 30 270 3.2 12.9 0.00 0.00 0.00 60 985.2
20260507220017 30 248 3.2 11.3 0.00 0.00 0.00 59 985.2
20260507215037 31 270 3.2 14.5 0.00 0.00 0.00 56 985.0
20260507214017 31 270 3.2 19.3 0.00 0.00 0.00 54 984.9
20260507213016 32 248 3.2 19.3 0.00 0.00 0.00 53 984.9
20260507212017 32 270 3.2 17.7 0.00 0.00 0.00 51 984.9
20260507211017 32 270 4.8 17.7 0.00 0.00 0.00 50 984.8
20260507210016 33 270 1.6 9.7 0.00 0.00 0.00 49 984.8
20260507205017 33 270 3.2 16.1 0.00 0.00 0.00 48 984.8
20260507204036 33 315 1.6 17.7 0.00 0.00 0.00 46 984.6
20260507203016 33 248 1.6 14.5 0.00 0.00 0.00 47 984.6
20260507202037 32 293 1.6 11.3 0.00 0.00 0.00 48 984.8
20260507201036 33 315 1.6 14.5 0.00 0.00 0.00 40 984.9
20260507200016 33 0.0 8.0 0.00 0.00 0.00 40 984.9
20260507195016 33 0 4.8 16.1 0.00 0.00 0.00 38 984.9
20260507194016 33 0 1.6 11.3 0.00 0.00 0.00 42 985.0
20260507193037 33 0 3.2 20.9 0.00 0.00 0.00 39 985.0
20260507192016 33 0 4.8 22.5 0.00 0.00 0.00 40 985.1
20260507191016 33 0 4.8 19.3 0.00 0.00 0.00 40 985.4
20260507190016 33 0 3.2 16.1 0.00 0.00 0.00 40 985.4
20260507185057 33 0 4.8 17.7 0.00 0.00 0.00 43 985.5
20260507184016 33 293 4.8 16.1 0.00 0.00 0.00 41 985.7
20260507183016 33 0 3.2 19.3 0.00 0.00 0.00 42 985.7
20260507182016 32 0 1.6 6.4 0.00 0.00 0.00 43 986.0
20260507181016 33 315 4.8 20.9 0.00 0.00 0.00 43 986.4
20260507180016 33 293 3.2 19.3 0.00 0.00 0.00 45 986.4
20260507175016 32 0 3.2 9.7 0.00 0.00 0.00 45 986.6
20260507174016 32 315 4.8 17.7 0.00 0.00 0.00 45 987.0
20260507173036 32 0 1.6 16.1 0.00 0.00 0.00 45 987.0
20260507172016 32 0 6.4 20.9 0.00 0.00 0.00 44 987.2
20260507171016 32 338 4.8 16.1 0.00 0.00 0.00 47 987.5
20260507170016 31 0 4.8 16.1 0.00 0.00 0.00 49 987.5
20260507165016 31 0 3.2 19.3 0.00 0.00 0.00 49 987.7
20260507164036 31 0 4.8 17.7 0.00 0.00 0.00 50 987.8
20260507163016 31 0 6.4 17.7 0.00 0.00 0.00 50 987.8
20260507162016 31 0 6.4 17.7 0.00 0.00 0.00 50 987.8
20260507161016 31 0 3.2 17.7 0.00 0.00 0.00 50 988.0
20260507160016 31 315 1.6 14.5 0.00 0.00 0.00 53 988.0
20260507155015 31 0 6.4 22.5 0.00 0.00 0.00 53 988.1
20260507154015 30 0 1.6 11.3 0.00 0.00 0.00 53 988.1
20260507153016 30 315 4.8 19.3 0.00 0.00 0.00 56 988.1
20260507152017 30 0 1.6 16.1 0.00 0.00 0.00 56 988.2
20260507151018 30 293 3.2 14.5 0.00 0.00 0.00 57 988.4
20260507150017 30 0 3.2 16.1 0.00 0.00 0.00 58 988.4
20260507145017 29 0 3.2 24.1 0.00 0.00 0.00 59 988.6
20260507144018 28 0 3.2 11.3 0.00 0.00 0.00 60 988.6
20260507143018 28 0 4.8 16.1 0.00 0.00 0.00 62 988.6
20260507142037 28 0 3.2 16.1 0.00 0.00 0.00 62 988.5
20260507141017 28 315 4.8 17.7 0.00 0.00 0.00 65 988.6
20260507140017 27 0 4.8 14.5 0.00 0.00 0.00 67 988.6
20260507135017 27 0 3.2 11.3 0.00 0.00 0.00 67 988.6
20260507134017 28 315 1.6 16.1 0.00 0.00 0.00 65 988.6
20260507133017 27 0 1.6 8.0 0.00 0.00 0.00 67 988.6
20260507132037 27 0.0 9.7 0.00 0.00 0.00 69 988.6
20260507131017 27 0 3.2 9.7 0.00 0.00 0.00 68 988.7
20260507130017 27 0.0 9.7 0.00 0.00 0.00 71 988.7
20260507125017 26 0.0 6.4 0.00 0.00 0.00 72 988.8
20260507124017 27 0 1.6 8.0 0.00 0.00 0.00 71 988.6
20260507123017 26 315 1.6 9.7 0.00 0.00 0.00 72 988.6
20260507122017 26 315 1.6 11.3 0.00 0.00 0.00 74 988.6
20260507121037 26 0.0 11.3 0.00 0.00 0.00 76 988.4
20260507120017 25 293 1.6 6.4 0.00 0.00 0.00 79 988.4
20260507115017 25 0.0 4.8 0.00 0.00 0.00 81 988.0
20260507114017 24 293 3.2 16.1 0.00 0.00 0.00 82 988.0
20260507113037 24 293 1.6 14.5 0.00 0.00 0.00 84 988.0
20260507112017 23 293 1.6 11.3 0.00 0.00 0.00 86 987.9
20260507111017 23 0.0 3.2 0.00 0.00 0.00 87 987.6
20260507110016 23 0.0 0.0 0.00 0.00 0.00 87 987.6
20260507105016 23 0.0 1.6 0.00 0.00 0.00 87 987.5
20260507104016 23 0.0 3.2 0.00 0.00 0.00 87 987.4
20260507103016 23 0.0 8.0 0.00 0.00 0.00 87 987.4
20260507102017 23 0.0 6.4 0.00 0.00 0.00 87 987.1
20260507101016 23 0.0 6.4 0.00 0.00 0.00 87 987.0
20260507100016 22 0.0 1.6 0.00 0.00 0.00 87 987.0
20260507095016 22 0.0 0.0 0.00 0.00 0.00 87 987.0
20260507094016 23 0.0 0.0 0.00 0.00 0.00 87 986.9
20260507093016 23 0.0 4.8 0.00 0.00 0.00 87 986.9
20260507092016 23 0.0 4.8 0.00 0.00 0.00 87 986.9
20260507091016 23 0.0 0.0 0.00 0.00 0.00 87 986.9
20260507090056 23 0.0 1.6 0.00 0.00 0.00 87 986.9
20260507085016 23 0.0 3.2 0.00 0.00 0.00 87 986.6
20260507084016 23 0.0 11.3 0.00 0.00 0.00 87 986.8
20260507083016 23 0.0 0.0 0.00 0.00 0.00 86 986.8
20260507082016 23 0.0 4.8 0.00 0.00 0.00 86 986.9
20260507081016 23 0.0 0.0 0.00 0.00 0.00 86 986.9
20260507080016 23 0.0 1.6 0.00 0.00 0.00 86 986.9
20260507075036 23 0.0 3.2 0.00 0.00 0.00 85 987.0
20260507074016 23 0.0 0.0 0.00 0.00 0.00 85 987.0
20260507073016 23 0.0 0.0 0.00 0.00 0.00 85 987.0
20260507072036 23 0.0 0.0 0.00 0.00 0.00 85 987.2
20260507071016 23 0.0 0.0 0.00 0.00 0.00 84 987.4
20260507070016 23 0.0 0.0 0.00 0.00 0.00 84 987.4
20260507065016 23 0.0 0.0 0.00 0.00 0.00 84 987.5
20260507064016 23 0.0 0.0 0.00 0.00 0.00 83 987.5
20260507063036 23 0.0 6.4 0.00 0.00 0.00 83 987.5
20260507062016 23 0.0 4.8 0.00 0.00 0.00 83 987.6
20260507061016 23 0.0 6.4 0.00 0.00 0.00 83 987.8
20260507060016 23 0.0 0.0 0.00 0.00 0.00 82 987.8
20260507055015 23 0.0 6.4 0.00 0.00 0.00 82 988.0
20260507054016 23 0.0 1.6 0.00 0.00 0.00 81 988.1
20260507053016 23 0.0 0.0 0.00 0.00 0.00 81 988.1
20260507052018 23 0.0 0.0 0.00 0.00 0.00 81 988.2
20260507051018 24 0.0 8.0 0.00 0.00 0.00 80 988.4
20260507050037 24 0.0 1.6 0.00 0.00 0.00 80 988.4
20260507045018 24 0.0 0.0 0.00 0.00 0.00 79 988.6
20260507044017 24 0.0 0.0 0.00 0.00 0.00 79 988.6
20260507043017 24 0.0 8.0 0.00 0.00 0.00 78 988.6
20260507042037 24 293 1.6 6.4 0.00 0.00 0.00 77 988.7
20260507041017 24 0.0 1.6 0.00 0.00 0.00 77 988.9
20260507040017 25 0.0 9.7 0.00 0.00 0.00 76 988.9
20260507035016 25 0.0 6.4 0.00 0.00 0.00 75 988.8
20260507034017 25 0.0 1.6 0.00 0.00 0.00 74 989.1
20260507033016 25 0.0 6.4 0.00 0.00 0.00 74 989.1
20260507032016 25 0.0 6.4 0.00 0.00 0.00 74 989.1
20260507031016 25 0.0 4.8 0.00 0.00 0.00 73 989.1
20260507030016 25 0.0 6.4 0.00 0.00 0.00 72 989.1
20260507025016 25 0.0 8.0 0.00 0.00 0.00 72 989.1
20260507024036 25 0.0 8.0 0.00 0.00 0.00 71 989.1
20260507023016 25 0.0 4.8 0.00 0.00 0.00 70 989.1
20260507022016 25 0.0 4.8 0.00 0.00 0.00 70 988.8
20260507021016 25 0.0 0.0 0.00 0.00 0.00 69 988.6
20260507020016 25 0.0 8.0 0.00 0.00 0.00 69 988.6
20260507015036 25 0.0 4.8 0.00 0.00 0.00 67 988.5
20260507014016 26 0.0 8.0 0.00 0.00 0.00 66 988.5
20260507013016 26 0.0 0.0 0.00 0.00 0.00 65 988.5
20260507012016 26 0.0 6.4 0.00 0.00 0.00 64 988.3
20260507011016 26 0.0 1.6 0.00 0.00 0.00 63 988.1
20260507010016 26 0.0 8.0 0.00 0.00 0.00 62 988.1
20260507005016 26 0.0 8.0 0.00 0.00 0.00 61 988.0
20260507004016 26 0.0 1.6 0.00 0.00 0.00 60 988.0
20260507003016 26 0.0 8.0 0.00 0.00 0.00 59 988.0
20260507002016 27 0.0 0.0 0.00 0.00 0.00 58 987.8
20260507001055 27 0.0 3.2 0.00 0.00 0.00 57 987.6
20260507000016 27 0.0 8.0 0.00 0.00 0.00 56 987.6
20260506235016 27 315 1.6 12.9 0.00 0.00 0.00 56 987.5
20260506234015 27 315 3.2 14.5 0.00 0.00 0.00 55 987.1
20260506233016 28 315 1.6 17.7 0.00 0.00 0.00 54 987.1